Clarksburg, WV

8:23 PM EST on November 22, 2019 (GMT -0500)
Benedum

Weather History for KCKB - May, 2019

Change the Weather History Date:

Tuesday, May 14, 2019

  Actual Average Record
Temperature  
Mean Temperature 51 °F -  
Max Temperature 59 °F 72 °F 93 °F (1961)
Min Temperature 42 °F 46 °F 30 °F (2013)
Degree Days  
Heating Degree Days 14    
Month to date heating degree days 43  
Growing Degree Days 2 (Base 50)    
Moisture  
Dew Point 42 °F    
Average Humidity 69    
Maximum Humidity 86    
Minimum Humidity 51    
Precipitation  
Precipitation 0.01 in - - ()
Month to date precipitation 1.80  
Year to date precipitation 15.93  
Sea Level Pressure  
Sea Level Pressure 29.95 in    
Wind  
Wind Speed 6 mph (WNW)    
Max Wind Speed 15 mph    
Max Gust Speed 22 mph    
Visibility 10 miles    
Events Rain    
Averages and records for this station are not official NWS values.
T = Trace of Precipitation, MM = Missing Value Source: NWS Daily Summary

Daily Weather History Graph

Daily Weather History Graph

Search for Another Location

Airport or City:

Astronomy

May. 14, 2019 Rise Set
Actual Time 6:08 AM EDT 8:26 PM EDT
Civil Twilight 5:38 AM EDT 8:56 PM EDT
Nautical Twilight 5:01 AM EDT 9:33 PM EDT
Astronomical Twilight 4:20 AM EDT 10:14 PM EDT
Moon 3:48 PM EDT (5/14) 3:58 AM EDT (5/14)
Length of Visible Light 15h 18m
Length of Day
14h 17m
Waxing Gibbous, 79% of the Moon is Illuminated
May 14
Waxing Gibbous
May 18
Full
May 26
Last Quarter
Jun 3
New
Jun 10
First Quarter

Hourly Weather History & Observations

Time (EDT) Temp. Dew Point Humidity Pressure Visibility Wind Dir Wind Speed Gust Speed Precip Events Conditions
12:53 AM 50.0 °F 46.0 °F 86% 29.89 in 4.0 mi NNW 8.1 mph - 0.05 in Rain Light Rain
1:16 AM 50.0 °F 45.0 °F 83% 29.90 in 10.0 mi NW 9.2 mph - 0.00 in Rain Light Rain
1:53 AM 48.9 °F 44.1 °F 83% 29.88 in 10.0 mi WNW 5.8 mph - 0.01 in   Overcast
2:53 AM 48.9 °F 45.0 °F 86% 29.87 in 10.0 mi West 3.5 mph - N/A   Overcast
3:09 AM 48.9 °F 45.0 °F 86% 29.89 in 10.0 mi West 5.8 mph - N/A   Overcast
3:19 AM 48.9 °F 45.0 °F 86% 29.89 in 10.0 mi WSW 5.8 mph - N/A   Overcast
3:35 AM 48.9 °F 44.1 °F 83% 29.89 in 10.0 mi West 5.8 mph - N/A   Overcast
3:53 AM 48.9 °F 44.1 °F 83% 29.88 in 10.0 mi West 4.6 mph - N/A   Overcast
4:38 AM 48.9 °F 44.1 °F 83% 29.91 in 10.0 mi West 6.9 mph - N/A   Overcast
4:53 AM 48.9 °F 44.1 °F 83% 29.89 in 10.0 mi West 6.9 mph - N/A   Overcast
5:07 AM 48.9 °F 43.0 °F 80% 29.91 in 10.0 mi West 8.1 mph - N/A   Overcast
5:18 AM 48.0 °F 43.0 °F 83% 29.92 in 10.0 mi West 9.2 mph - N/A   Overcast
5:53 AM 46.9 °F 41.0 °F 80% 29.92 in 10.0 mi West 6.9 mph - N/A   Partly Cloudy
6:53 AM 46.9 °F 42.1 °F 83% 29.93 in 10.0 mi WSW 5.8 mph - N/A   Overcast
7:53 AM 46.9 °F 42.1 °F 83% 29.94 in 10.0 mi WSW 5.8 mph - N/A   Overcast
8:01 AM 46.9 °F 42.1 °F 83% 29.95 in 10.0 mi WSW 5.8 mph - N/A   Overcast
8:45 AM 48.9 °F 43.0 °F 80% 29.96 in 10.0 mi West 9.2 mph - N/A   Overcast
8:53 AM 48.9 °F 43.0 °F 80% 29.95 in 10.0 mi West 5.8 mph - N/A   Overcast
9:03 AM 48.9 °F 43.0 °F 80% 29.96 in 10.0 mi West 5.8 mph - N/A   Overcast
9:53 AM 48.9 °F 41.0 °F 74% 29.95 in 10.0 mi West 10.4 mph - 0.00 in Rain Light Rain
10:53 AM 50.0 °F 41.0 °F 71% 29.96 in 10.0 mi WNW 5.8 mph - 0.00 in   Overcast
11:53 AM 48.9 °F 39.9 °F 71% 29.99 in 10.0 mi WNW 15.0 mph 21.9 mph N/A   Overcast
12:27 PM 52.0 °F 41.0 °F 66% 30.00 in 10.0 mi NNW 12.7 mph - N/A   Overcast
12:53 PM 53.1 °F 39.0 °F 59% 29.99 in 10.0 mi NW 12.7 mph 19.6 mph N/A   Mostly Cloudy
1:06 PM 53.1 °F 37.9 °F 57% 30.00 in 10.0 mi NNW 12.7 mph - N/A   Overcast
1:53 PM 53.1 °F 39.0 °F 59% 29.99 in 10.0 mi NW 9.2 mph - N/A   Overcast
2:00 PM 54.0 °F 39.0 °F 57% 30.00 in 10.0 mi NW 6.9 mph - N/A   Overcast
2:53 PM 55.0 °F 39.9 °F 57% 29.99 in 10.0 mi NW 9.2 mph - N/A   Overcast
3:53 PM 55.0 °F 39.0 °F 55% 29.98 in 10.0 mi NW 8.1 mph - N/A   Overcast
4:53 PM 55.9 °F 39.0 °F 53% 29.97 in 10.0 mi WNW 3.5 mph - N/A   Overcast
5:53 PM 57.9 °F 39.0 °F 49% 29.97 in 10.0 mi WNW 9.2 mph 17.3 mph N/A   Mostly Cloudy
6:53 PM 57.9 °F 39.9 °F 51% 29.96 in 10.0 mi North 4.6 mph - N/A   Mostly Cloudy
7:53 PM 55.9 °F 39.9 °F 55% 29.97 in 10.0 mi Calm Calm - N/A   Clear
8:53 PM 51.1 °F 41.0 °F 68% 29.99 in 10.0 mi Calm Calm - N/A   Clear
9:53 PM 46.9 °F 41.0 °F 80% 30.00 in 10.0 mi Calm Calm - N/A   Clear
10:53 PM 46.0 °F 41.0 °F 83% 30.01 in 10.0 mi Calm Calm - N/A   Clear
11:53 PM 44.1 °F 39.9 °F 85% 30.01 in 9.0 mi Calm Calm - N/A   Clear